User: anonymous   Login
Location: Bílinka
(49.3579°N, 14.3767°E)
Time: 00:09:49
(UTC+00:00)
Language:

BlueWalker 3 - Orbit

View from above orbital plane
View from above orbital plane
View from above satellite
View from above satellite

Ground track
Ground track

The orbit data is extracted from the following two-line orbital elements,

1 53807U 22111AL  23155.20687362  .00005478  00000-0  25963-3 0  9992
2 53807  53.1976 132.6521 0013585  13.6186 346.5175 15.20774933 40470
Epoch (UTC): 04 June 2023 04:57:53
Eccentricity: 0.0013585
inclination: 53.1976°
perigee height: 494 km
apogee height: 513 km
right ascension of ascending node: 132.6521°
argument of perigee: 13.6186°
revolutions per day: 15.20774933
mean anomaly at epoch: 346.5175°
orbit number at epoch: 4047

The dashed part of the orbit path shows where the satellite is in the earth's shadow,  

DLR